Weather History for Kansas City, MO

Change the Weather History Date:

Saturday, November 24, 2012

  Actual Average Record
Temperature  
Mean Temperature 36 °F -  
Max Temperature 46 °F 50 °F 66 °F (2011)
Min Temperature 26 °F 33 °F 14 °F (2013)
Degree Days  
Heating Degree Days 29    
Moisture  
Dew Point 17 °F    
Average Humidity 46    
Maximum Humidity 66    
Minimum Humidity 33    
Precipitation  
Precipitation 0.00 in - - ()
Sea Level Pressure  
Sea Level Pressure 30.19 in    
Wind  
Wind Speed 4 mph (South)    
Max Wind Speed 15 mph    
Max Gust Speed 20 mph    
Visibility 10 miles    
Events      
Averages and records for this station are not official NWS values.
T = Trace of Precipitation, MM = Missing Value Source: NWS Daily Summary

Daily Weather History Graph

Daily Weather History Graph

Search for Another Location

Airport:

Trip Planner

Search our weather history database for the weather conditions in past years. The results will help you decide how hot, cold, wet, or windy it might be!

Date:

Astronomy

Nov. 24, 2012 Rise Set
Actual Time 7:11 AM CST 4:58 PM CST
Civil Twilight 6:42 AM CST 5:27 PM CST
Nautical Twilight 6:09 AM CST 6:00 PM CST
Astronomical Twilight 5:37 AM CST 6:32 PM CST
Moon 2:42 PM CST (11/24) 3:30 AM CST (11/24)
Length of Visible Light 10h 44m
Length of Day
9h 46m
Waxing Gibbous, 87% of the Moon is Illuminated
Nov 24
Waxing Gibbous
Nov 28
Full
Dec 6
Last Quarter
Dec 13
New
Dec 19
First Quarter

Hourly Weather History & Observations

Time (CST) Temp. Windchill Dew Point Humidity Pressure Visibility Wind Dir Wind Speed Gust Speed Precip Events Conditions
12:54 AM 28.9 °F - 12.0 °F 49% 30.44 in 10.0 mi Calm Calm - N/A   Clear
1:54 AM 27.0 °F - 12.0 °F 53% 30.42 in 10.0 mi Calm Calm - N/A   Clear
2:54 AM 27.0 °F - 15.1 °F 61% 30.42 in 10.0 mi Calm Calm - N/A   Clear
3:54 AM 27.0 °F - 12.9 °F 56% 30.40 in 10.0 mi Calm Calm - N/A   Clear
4:54 AM 27.0 °F - 14.0 °F 58% 30.38 in 10.0 mi Calm Calm - N/A   Clear
5:54 AM 26.1 °F - 16.0 °F 66% 30.38 in 10.0 mi Calm Calm - N/A   Clear
6:54 AM 26.1 °F 21.9 °F 15.1 °F 63% 30.39 in 10.0 mi SW 3.5 mph - N/A   Clear
7:54 AM 27.0 °F - 16.0 °F 63% 30.38 in 10.0 mi Calm Calm - N/A   Clear
8:54 AM 30.0 °F 24.1 °F 16.0 °F 56% 30.35 in 10.0 mi South 5.8 mph - N/A   Clear
9:54 AM 33.1 °F 26.1 °F 12.9 °F 43% 30.34 in 10.0 mi South 8.1 mph - N/A   Clear
10:54 AM 37.0 °F 32.4 °F 14.0 °F 39% 30.29 in 10.0 mi South 5.8 mph - N/A   Clear
11:54 AM 39.9 °F 35.1 °F 15.1 °F 36% 30.24 in 10.0 mi Variable 6.9 mph - N/A   Clear
12:54 PM 43.0 °F 36.8 °F 16.0 °F 34% 30.18 in 10.0 mi South 11.5 mph 16.1 mph N/A   Clear
1:54 PM 45.0 °F 38.2 °F 17.1 °F 33% 30.12 in 10.0 mi South 15.0 mph 19.6 mph N/A   Clear
2:54 PM 46.0 °F 40.6 °F 18.0 °F 33% 30.08 in 10.0 mi SSE 11.5 mph - N/A   Clear
3:54 PM 45.0 °F 38.9 °F 19.0 °F 36% 30.05 in 10.0 mi South 12.7 mph - N/A   Clear
4:54 PM 44.1 °F 39.5 °F 19.9 °F 38% 30.02 in 10.0 mi South 8.1 mph - N/A   Clear
5:54 PM 42.1 °F 36.6 °F 21.0 °F 43% 30.02 in 10.0 mi South 9.2 mph - N/A   Clear
6:54 PM 43.0 °F 38.8 °F 21.9 °F 43% 29.99 in 10.0 mi SSW 6.9 mph - N/A   Clear
7:54 PM 43.0 °F 38.2 °F 21.9 °F 43% 29.97 in 10.0 mi South 8.1 mph - N/A   Clear
8:54 PM 44.1 °F 39.0 °F 23.0 °F 43% 29.95 in 10.0 mi SSW 9.2 mph - N/A   Clear
9:54 PM 46.0 °F 40.6 °F 21.9 °F 39% 29.93 in 10.0 mi SSW 11.5 mph - N/A   Clear
10:54 PM 46.0 °F 41.0 °F 23.0 °F 40% 29.92 in 10.0 mi SSW 10.4 mph - N/A   Clear
11:54 PM 44.1 °F 42.5 °F 23.0 °F 43% 29.92 in 10.0 mi SSW 3.5 mph - N/A   Clear